Location: Milo
(50.5667°N, 112.8833°W)
Time: 02:20:17
(UTC+00:00)

ISS - Pass Details

Date: 02 December 2021
Orbit: 413 x 422 km, 51.6° (Epoch: 22 January)

Event Time Altitude Azimuth Distance (km) Brightness Sun altitude
Rises 01:19:11 0° 283° (WNW) 2,386 1.2 -16.5°
Reaches altitude 10° 01:21:18 10° 283° (WNW) 1,517 0.0 -16.9°
Maximum altitude 01:24:43 90° 34° (NNE) 429 -3.8 -17.4°
Enters shadow 01:25:32 49° 103° (ESE) 551 -3.6 -17.5°
